Weather History for KBNA - November, 2012

Change the Weather History Date:

Wednesday, November 7, 2012

  Actual Average Record
Temperature  
Mean Temperature 47 °F 53 °F  
Max Temperature 53 °F 64 °F 79 °F (1980)
Min Temperature 41 °F 42 °F 24 °F (1886)
Degree Days  
Heating Degree Days 18    
Month to date heating degree days 106  
Since 1 July heating degree days 346  
Cooling Degree Days 0    
Month to date cooling degree days 0  
Year to date cooling degree days 1975  
Moisture  
Dew Point 40 °F    
Average Humidity 76    
Maximum Humidity 93    
Minimum Humidity 59    
Precipitation  
Precipitation 0.00 in 0.12 in 1.16 in (1995)
Month to date precipitation 0.25 0.88  
Year to date precipitation 39.98 39.58  
Snow  
Snow 0.00 in 0.00 in 0.00 in (2002)
Month to date snowfall 0.0 0.0  
Since 1 July snowfall 0.0 T  
Since 1 September snowfall 0.0 T  
Snow Depth 0.00 in    
Sea Level Pressure  
Sea Level Pressure 30.00 in    
Wind  
Wind Speed 7 mph (NW)    
Max Wind Speed 15 mph    
Max Gust Speed 21 mph    
Visibility 9 miles    
Events      
T = Trace of Precipitation, MM = Missing Value Source: NWS Daily Summary

Daily Weather History Graph

Daily Weather History Graph

Search for Another Location

Airport or City:

Trip Planner

Search our weather history database for the weather conditions in past years. The results will help you decide how hot, cold, wet, or windy it might be!

Date:

Astronomy

Nov. 07, 2012 Rise Set
Actual Time 6:15 AM CST 4:44 PM CST
Civil Twilight 5:48 AM CST 5:11 PM CST
Nautical Twilight 5:18 AM CST 5:42 PM CST
Astronomical Twilight 4:48 AM CST 6:12 PM CST
Moon No Moon Rise 12:42 PM CST (11/7)
Length of Visible Light 11h 22m
Length of Day
10h 28m
Last Quarter, 43% of the Moon is Illuminated
Nov 7
Last Quarter
Nov 13
New
Nov 20
First Quarter
Nov 28
Full
Dec 6
Last Quarter

Hourly Weather History & Observations

Time (CST) Temp. Windchill Dew Point Humidity Pressure Visibility Wind Dir Wind Speed Gust Speed Precip Events Conditions
12:05 AM 46.4 °F - 44.6 °F 93% 29.93 in 3.0 mi Calm Calm - N/A   Overcast
12:53 AM 46.0 °F 44.8 °F 44.1 °F 93% 29.93 in 6.0 mi West 3.5 mph - N/A   Overcast
1:06 AM 46.4 °F 44.3 °F 44.6 °F 93% 29.92 in 7.0 mi West 4.6 mph - N/A   Overcast
1:20 AM 46.4 °F 45.2 °F 44.6 °F 93% 29.92 in 6.0 mi WNW 3.5 mph - N/A   Overcast
1:53 AM 46.0 °F - 44.1 °F 93% 29.92 in 5.0 mi Calm Calm - N/A   Overcast
2:53 AM 46.0 °F 43.1 °F 43.0 °F 89% 29.91 in 8.0 mi West 5.8 mph - N/A   Overcast
3:53 AM 46.0 °F 42.5 °F 42.1 °F 86% 29.91 in 10.0 mi WNW 6.9 mph - N/A   Overcast
4:29 AM 46.4 °F 41.9 °F 42.8 °F 87% 29.92 in 9.0 mi WNW 9.2 mph - N/A   Overcast
4:44 AM 44.6 °F 40.7 °F 42.8 °F 93% 29.92 in 10.0 mi WNW 6.9 mph - N/A   Overcast
4:53 AM 45.0 °F 41.8 °F 41.0 °F 86% 29.92 in 9.0 mi NW 5.8 mph - N/A   Overcast
5:17 AM 44.6 °F 41.4 °F 41.0 °F 87% 29.92 in 8.0 mi WNW 5.8 mph - N/A   Overcast
5:53 AM 45.0 °F 41.2 °F 41.0 °F 86% 29.93 in 9.0 mi West 6.9 mph - N/A   Overcast
6:12 AM 44.6 °F 42.2 °F 41.0 °F 87% 29.93 in 9.0 mi West 4.6 mph - N/A   Mostly Cloudy
6:53 AM 44.1 °F 40.8 °F 41.0 °F 89% 29.94 in 7.0 mi West 5.8 mph - N/A   Mostly Cloudy
7:53 AM 45.0 °F 40.1 °F 39.9 °F 82% 29.96 in 9.0 mi WNW 9.2 mph - N/A   Mostly Cloudy
8:53 AM 48.0 °F - 39.9 °F 74% 29.97 in 10.0 mi NW 6.9 mph - N/A   Mostly Cloudy
9:53 AM 48.9 °F - 39.0 °F 69% 29.98 in 10.0 mi NNW 6.9 mph 18.4 mph N/A   Mostly Cloudy
10:53 AM 50.0 °F - 39.0 °F 66% 29.98 in 10.0 mi NW 10.4 mph - N/A   Overcast
11:36 AM 51.8 °F - 39.2 °F 62% 29.97 in 10.0 mi NW 11.5 mph - N/A   Mostly Cloudy
11:53 AM 51.1 °F - 37.9 °F 61% 29.97 in 10.0 mi NW 12.7 mph 17.3 mph N/A   Overcast
12:53 PM 50.0 °F - 37.9 °F 63% 29.98 in 10.0 mi NNW 11.5 mph 16.1 mph N/A   Mostly Cloudy
1:17 PM 51.8 °F - 37.4 °F 58% 29.97 in 10.0 mi North 9.2 mph - N/A   Mostly Cloudy
1:53 PM 52.0 °F - 39.9 °F 63% 29.98 in 10.0 mi WNW 8.1 mph - N/A   Mostly Cloudy
2:53 PM 52.0 °F - 39.0 °F 61% 30.00 in 10.0 mi NNW 11.5 mph 20.7 mph N/A   Mostly Cloudy
3:53 PM 50.0 °F - 37.9 °F 63% 30.03 in 10.0 mi NNW 9.2 mph - N/A   Mostly Cloudy
4:53 PM 48.0 °F - 37.0 °F 66% 30.05 in 10.0 mi North 4.6 mph - N/A   Scattered Clouds
5:53 PM 48.0 °F - 39.0 °F 71% 30.09 in 10.0 mi NW 4.6 mph - N/A   Overcast
6:53 PM 48.0 °F - 39.9 °F 74% 30.11 in 10.0 mi NW 9.2 mph - N/A   Overcast
7:36 PM 46.4 °F 42.9 °F 39.2 °F 76% 30.12 in 10.0 mi Variable 6.9 mph - N/A   Overcast
7:53 PM 46.9 °F - 39.9 °F 77% 30.13 in 10.0 mi NW 5.8 mph - N/A   Overcast
8:16 PM 46.4 °F 42.9 °F 39.2 °F 76% 30.13 in 10.0 mi NW 6.9 mph - N/A   Overcast
8:53 PM 48.0 °F - 39.9 °F 74% 30.14 in 10.0 mi NNW 4.6 mph - N/A   Overcast
9:53 PM 44.1 °F 40.1 °F 37.9 °F 79% 30.15 in 10.0 mi North 6.9 mph - N/A   Partly Cloudy
10:53 PM 43.0 °F 41.3 °F 37.0 °F 80% 30.14 in 10.0 mi NW 3.5 mph - N/A   Partly Cloudy
11:53 PM 43.0 °F 41.3 °F 37.9 °F 82% 30.16 in 9.0 mi NNW 3.5 mph - N/A   Clear